Data supplied by UK-AIR on 29/4/2023
All Data GMT hour ending 
Status: R =Ratified P=Provisional,P*=As supplied
,,Inverness,,,,,,,,,,,,,,,,,,,,,,,
Date,time,"PM<sub>10</sub> particulate matter (Hourly measured)",status,unit,"Nitric oxide",status,unit,"Nitrogen dioxide",status,unit,"Nitrogen oxides as nitrogen dioxide",status,unit,"PM<sub>2.5</sub> particulate matter (Hourly measured)",status,unit
 
01-01-2022,01:00,25.225,R,ugm-3 (FIDAS),8.67563,R,ugm-3,20.00878,R,ugm-3,33.31123,R,ugm-3,22.854,R,ugm-3 (Ref.eq)
01-01-2022,02:00,15.150,R,ugm-3 (FIDAS),2.74872,R,ugm-3,14.96455,R,ugm-3,19.17919,R,ugm-3,13.915,R,ugm-3 (Ref.eq)
01-01-2022,03:00,10.625,R,ugm-3 (FIDAS),2.77019,R,ugm-3,17.15238,R,ugm-3,21.39994,R,ugm-3,9.623,R,ugm-3 (Ref.eq)
01-01-2022,04:00,8.850,R,ugm-3 (FIDAS),0.99856,R,ugm-3,9.32029,R,ugm-3,10.85138,R,ugm-3,7.594,R,ugm-3 (Ref.eq)
01-01-2022,05:00,10.225,R,ugm-3 (FIDAS),2.15817,R,ugm-3,10.57053,R,ugm-3,13.87968,R,ugm-3,9.033,R,ugm-3 (Ref.eq)
01-01-2022,06:00,7.200,R,ugm-3 (FIDAS),1.15961,R,ugm-3,8.56862,R,ugm-3,10.34667,R,ugm-3,6.392,R,ugm-3 (Ref.eq)
01-01-2022,07:00,9.575,R,ugm-3 (FIDAS),2.51250,R,ugm-3,13.15647,R,ugm-3,17.00891,R,ugm-3,7.476,R,ugm-3 (Ref.eq)
01-01-2022,08:00,13.875,R,ugm-3 (FIDAS),1.70721,R,ugm-3,5.96248,R,ugm-3,8.58016,R,ugm-3,7.382,R,ugm-3 (Ref.eq)
01-01-2022,09:00,14.475,R,ugm-3 (FIDAS),1.25625,R,ugm-3,3.72659,R,ugm-3,5.65282,R,ugm-3,8.491,R,ugm-3 (Ref.eq)
01-01-2022,10:00,8.325,R,ugm-3 (FIDAS),1.61058,R,ugm-3,4.39462,R,ugm-3,6.86413,R,ugm-3,5.189,R,ugm-3 (Ref.eq)
01-01-2022,11:00,10.325,R,ugm-3 (FIDAS),1.83606,R,ugm-3,3.74606,R,ugm-3,6.56130,R,ugm-3,7.123,R,ugm-3 (Ref.eq)
01-01-2022,12:00,11.250,R,ugm-3 (FIDAS),1.61058,R,ugm-3,3.58707,R,ugm-3,6.05659,R,ugm-3,7.382,R,ugm-3 (Ref.eq)
01-01-2022,13:00,10.225,R,ugm-3 (FIDAS),2.60913,R,ugm-3,4.17578,R,ugm-3,8.17639,R,ugm-3,6.486,R,ugm-3 (Ref.eq)
01-01-2022,14:00,8.325,R,ugm-3 (FIDAS),2.19038,R,ugm-3,3.60654,R,ugm-3,6.96507,R,ugm-3,5.519,R,ugm-3 (Ref.eq)
01-01-2022,15:00,8.450,R,ugm-3 (FIDAS),1.86827,R,ugm-3,4.04997,R,ugm-3,6.91460,R,ugm-3,5.708,R,ugm-3 (Ref.eq)
01-01-2022,16:00,5.650,R,ugm-3 (FIDAS),2.77019,R,ugm-3,2.96987,R,ugm-3,7.21743,R,ugm-3,3.774,R,ugm-3 (Ref.eq)
01-01-2022,17:00,5.750,R,ugm-3 (FIDAS),1.48173,R,ugm-3,3.43133,R,ugm-3,5.70329,R,ugm-3,4.009,R,ugm-3 (Ref.eq)
01-01-2022,18:00,4.000,R,ugm-3 (FIDAS),2.70577,R,ugm-3,5.03704,R,ugm-3,9.18582,R,ugm-3,2.995,R,ugm-3 (Ref.eq)
01-01-2022,19:00,4.025,R,ugm-3 (FIDAS),2.60913,R,ugm-3,4.37767,R,ugm-3,8.37828,R,ugm-3,2.476,R,ugm-3 (Ref.eq)
01-01-2022,20:00,2.100,R,ugm-3 (FIDAS),2.83461,R,ugm-3,5.19278,R,ugm-3,9.53912,R,ugm-3,1.509,R,ugm-3 (Ref.eq)
01-01-2022,21:00,4.275,R,ugm-3 (FIDAS),2.06154,R,ugm-3,4.00598,R,ugm-3,7.16696,R,ugm-3,2.476,R,ugm-3 (Ref.eq)
01-01-2022,22:00,8.125,R,ugm-3 (FIDAS),2.12596,R,ugm-3,4.71475,R,ugm-3,7.97451,R,ugm-3,4.811,R,ugm-3 (Ref.eq)
01-01-2022,23:00,9.775,R,ugm-3 (FIDAS),1.32067,R,ugm-3,2.61838,R,ugm-3,4.64338,R,ugm-3,5.896,R,ugm-3 (Ref.eq)
01-01-2022,24:00,8.950,R,ugm-3 (FIDAS),1.15961,R,ugm-3,2.36062,R,ugm-3,4.13867,R,ugm-3,5.448,R,ugm-3 (Ref.eq)
02-01-2022,01:00,9.675,R,ugm-3 (FIDAS),0.81593,R,ugm-3,1.37268,R,ugm-3,2.62376,R,ugm-3,5.613,R,ugm-3 (Ref.eq)
02-01-2022,02:00,9.775,R,ugm-3 (FIDAS),0.47238,R,ugm-3,1.36124,R,ugm-3,2.08555,R,ugm-3,5.495,R,ugm-3 (Ref.eq)
02-01-2022,03:00,9.875,R,ugm-3 (FIDAS),0.19325,R,ugm-3,1.31831,R,ugm-3,1.61462,R,ugm-3,5.495,R,ugm-3 (Ref.eq)
02-01-2022,04:00,10.650,R,ugm-3 (FIDAS),0.51532,R,ugm-3,1.32904,R,ugm-3,2.11919,R,ugm-3,5.802,R,ugm-3 (Ref.eq)
02-01-2022,05:00,9.850,R,ugm-3 (FIDAS),0.45091,R,ugm-3,1.17552,R,ugm-3,1.86690,R,ugm-3,5.330,R,ugm-3 (Ref.eq)
02-01-2022,06:00,8.725,R,ugm-3 (FIDAS),0.54753,R,ugm-3,1.73376,R,ugm-3,2.57330,R,ugm-3,4.481,R,ugm-3 (Ref.eq)
02-01-2022,07:00,6.200,R,ugm-3 (FIDAS),0.83740,R,ugm-3,2.75255,R,ugm-3,4.03655,R,ugm-3,3.609,R,ugm-3 (Ref.eq)
02-01-2022,08:00,5.850,R,ugm-3 (FIDAS),2.09350,R,ugm-3,4.61082,R,ugm-3,7.82081,R,ugm-3,3.443,R,ugm-3 (Ref.eq)
02-01-2022,09:00,4.200,R,ugm-3 (FIDAS),1.93246,R,ugm-3,4.25226,R,ugm-3,7.21533,R,ugm-3,2.571,R,ugm-3 (Ref.eq)
02-01-2022,10:00,1.850,R,ugm-3 (FIDAS),2.06130,R,ugm-3,3.75198,R,ugm-3,6.91259,R,ugm-3,1.156,R,ugm-3 (Ref.eq)
02-01-2022,11:00,2.525,R,ugm-3 (FIDAS),4.12259,R,ugm-3,7.20122,R,ugm-3,13.52244,R,ugm-3,1.769,R,ugm-3 (Ref.eq)
02-01-2022,12:00,3.950,R,ugm-3 (FIDAS),6.11947,R,ugm-3,8.12547,R,ugm-3,17.50853,R,ugm-3,2.594,R,ugm-3 (Ref.eq)
02-01-2022,13:00,5.325,R,ugm-3 (FIDAS),5.47532,R,ugm-3,7.95265,R,ugm-3,16.34802,R,ugm-3,3.231,R,ugm-3 (Ref.eq)
02-01-2022,14:00,5.075,R,ugm-3 (FIDAS),9.24362,R,ugm-3,12.36695,R,ugm-3,26.54030,R,ugm-3,3.656,R,ugm-3 (Ref.eq)
02-01-2022,15:00,2.800,R,ugm-3 (FIDAS),8.53505,R,ugm-3,9.01321,R,ugm-3,22.10010,R,ugm-3,1.675,R,ugm-3 (Ref.eq)
02-01-2022,16:00,1.950,R,ugm-3 (FIDAS),9.66232,R,ugm-3,13.03683,R,ugm-3,27.85218,R,ugm-3,1.132,R,ugm-3 (Ref.eq)
02-01-2022,17:00,2.900,R,ugm-3 (FIDAS),7.50440,R,ugm-3,12.91452,R,ugm-3,24.42111,R,ugm-3,2.193,R,ugm-3 (Ref.eq)
02-01-2022,18:00,3.275,R,ugm-3 (FIDAS),4.85263,R,ugm-3,9.37835,R,ugm-3,16.81895,R,ugm-3,2.217,R,ugm-3 (Ref.eq)
02-01-2022,19:00,4.425,R,ugm-3 (FIDAS),4.09038,R,ugm-3,6.64512,R,ugm-3,12.91695,R,ugm-3,3.255,R,ugm-3 (Ref.eq)
02-01-2022,20:00,4.075,R,ugm-3 (FIDAS),3.63947,R,ugm-3,5.26777,R,ugm-3,10.84822,R,ugm-3,2.948,R,ugm-3 (Ref.eq)
02-01-2022,21:00,3.100,R,ugm-3 (FIDAS),2.28675,R,ugm-3,4.56680,R,ugm-3,8.07310,R,ugm-3,2.359,R,ugm-3 (Ref.eq)
02-01-2022,22:00,2.975,R,ugm-3 (FIDAS),2.02909,R,ugm-3,3.70045,R,ugm-3,6.81168,R,ugm-3,1.887,R,ugm-3 (Ref.eq)
02-01-2022,23:00,3.875,R,ugm-3 (FIDAS),1.35272,R,ugm-3,2.26514,R,ugm-3,4.33929,R,ugm-3,2.618,R,ugm-3 (Ref.eq)
02-01-2022,24:00,2.600,R,ugm-3 (FIDAS),1.03065,R,ugm-3,2.10305,R,ugm-3,3.68335,R,ugm-3,1.604,R,ugm-3 (Ref.eq)
03-01-2022,01:00,1.250,R,ugm-3 (FIDAS),0.42939,R,ugm-3,1.56107,R,ugm-3,2.21945,R,ugm-3,0.849,R,ugm-3 (Ref.eq)
03-01-2022,02:00,1.525,R,ugm-3 (FIDAS),0.51526,R,ugm-3,1.29488,R,ugm-3,2.08494,R,ugm-3,0.873,R,ugm-3 (Ref.eq)
03-01-2022,03:00,2.400,R,ugm-3 (FIDAS),0.35424,R,ugm-3,1.52496,R,ugm-3,2.06813,R,ugm-3,1.533,R,ugm-3 (Ref.eq)
03-01-2022,04:00,1.600,R,ugm-3 (FIDAS),0.64408,R,ugm-3,1.98851,R,ugm-3,2.97609,R,ugm-3,0.991,R,ugm-3 (Ref.eq)
03-01-2022,05:00,0.825,R,ugm-3 (FIDAS),1.80342,R,ugm-3,2.17812,R,ugm-3,4.94333,R,ugm-3,0.259,R,ugm-3 (Ref.eq)
03-01-2022,06:00,0.875,R,ugm-3 (FIDAS),0.77290,R,ugm-3,3.10249,R,ugm-3,4.28758,R,ugm-3,0.542,R,ugm-3 (Ref.eq)
03-01-2022,07:00,0.675,R,ugm-3 (FIDAS),0.96612,R,ugm-3,3.05843,R,ugm-3,4.53979,R,ugm-3,0.259,R,ugm-3 (Ref.eq)
03-01-2022,08:00,0.850,R,ugm-3 (FIDAS),0.96612,R,ugm-3,4.77346,R,ugm-3,6.25483,R,ugm-3,0.354,R,ugm-3 (Ref.eq)
03-01-2022,09:00,2.850,R,ugm-3 (FIDAS),0.48306,R,ugm-3,3.49646,R,ugm-3,4.23714,R,ugm-3,1.533,R,ugm-3 (Ref.eq)
03-01-2022,10:00,6.700,R,ugm-3 (FIDAS),14.10534,R,ugm-3,23.11429,R,ugm-3,44.74218,R,ugm-3,2.759,R,ugm-3 (Ref.eq)
03-01-2022,11:00,9.625,R,ugm-3 (FIDAS),23.15465,R,ugm-3,39.80681,R,ugm-3,75.31011,R,ugm-3,5.283,R,ugm-3 (Ref.eq)
03-01-2022,12:00,8.700,R,ugm-3 (FIDAS),19.70883,R,ugm-3,26.27541,R,ugm-3,56.49520,R,ugm-3,4.080,R,ugm-3 (Ref.eq)
03-01-2022,13:00,6.400,R,ugm-3 (FIDAS),19.38679,R,ugm-3,25.35682,R,ugm-3,55.08282,R,ugm-3,3.137,R,ugm-3 (Ref.eq)
03-01-2022,14:00,8.150,R,ugm-3 (FIDAS),26.34285,R,ugm-3,25.83873,R,ugm-3,66.23053,R,ugm-3,5.165,R,ugm-3 (Ref.eq)
03-01-2022,15:00,9.525,R,ugm-3 (FIDAS),31.10903,R,ugm-3,34.97481,R,ugm-3,82.67467,R,ugm-3,4.906,R,ugm-3 (Ref.eq)
03-01-2022,16:00,8.625,R,ugm-3 (FIDAS),19.12916,R,ugm-3,24.69257,R,ugm-3,54.02353,R,ugm-3,4.835,R,ugm-3 (Ref.eq)
03-01-2022,17:00,10.700,R,ugm-3 (FIDAS),24.12077,R,ugm-3,32.12106,R,ugm-3,69.10573,R,ugm-3,6.604,R,ugm-3 (Ref.eq)
03-01-2022,18:00,8.850,R,ugm-3 (FIDAS),15.58672,R,ugm-3,27.90477,R,ugm-3,51.80408,R,ugm-3,5.967,R,ugm-3 (Ref.eq)
03-01-2022,19:00,7.200,R,ugm-3 (FIDAS),10.56290,R,ugm-3,15.01065,R,ugm-3,31.20687,R,ugm-3,4.292,R,ugm-3 (Ref.eq)
03-01-2022,20:00,7.600,R,ugm-3 (FIDAS),10.40188,R,ugm-3,10.78500,R,ugm-3,26.73433,R,ugm-3,4.363,R,ugm-3 (Ref.eq)
03-01-2022,21:00,7.375,R,ugm-3 (FIDAS),3.73566,R,ugm-3,5.47022,R,ugm-3,11.19815,R,ugm-3,4.057,R,ugm-3 (Ref.eq)
03-01-2022,22:00,5.375,R,ugm-3 (FIDAS),2.89836,R,ugm-3,4.13108,R,ugm-3,8.57516,R,ugm-3,3.325,R,ugm-3 (Ref.eq)
03-01-2022,23:00,5.700,R,ugm-3 (FIDAS),1.80342,R,ugm-3,3.33829,R,ugm-3,6.10350,R,ugm-3,3.325,R,ugm-3 (Ref.eq)
03-01-2022,24:00,2.625,R,ugm-3 (FIDAS),1.32036,R,ugm-3,2.36394,R,ugm-3,4.38847,R,ugm-3,1.887,R,ugm-3 (Ref.eq)
04-01-2022,01:00,4.650,R,ugm-3 (FIDAS),0.94454,R,ugm-3,1.51014,R,ugm-3,2.95841,R,ugm-3,2.759,R,ugm-3 (Ref.eq)
04-01-2022,02:00,7.025,R,ugm-3 (FIDAS),0.81574,R,ugm-3,1.57315,R,ugm-3,2.82394,R,ugm-3,4.104,R,ugm-3 (Ref.eq)
04-01-2022,03:00,6.775,R,ugm-3 (FIDAS),0.48300,R,ugm-3,1.57907,R,ugm-3,2.31966,R,ugm-3,4.127,R,ugm-3 (Ref.eq)
04-01-2022,04:00,8.500,R,ugm-3 (FIDAS),0.54740,R,ugm-3,1.17776,R,ugm-3,2.01710,R,ugm-3,5.118,R,ugm-3 (Ref.eq)
04-01-2022,05:00,8.700,R,ugm-3 (FIDAS),1.48121,R,ugm-3,2.72116,R,ugm-3,4.99232,R,ugm-3,5.071,R,ugm-3 (Ref.eq)
04-01-2022,06:00,4.225,R,ugm-3 (FIDAS),0.86941,R,ugm-3,1.74300,R,ugm-3,3.07607,R,ugm-3,2.712,R,ugm-3 (Ref.eq)
04-01-2022,07:00,7.650,R,ugm-3 (FIDAS),2.22181,R,ugm-3,3.60268,R,ugm-3,7.00941,R,ugm-3,4.387,R,ugm-3 (Ref.eq)
04-01-2022,08:00,2.700,R,ugm-3 (FIDAS),4.05723,R,ugm-3,7.14228,R,ugm-3,13.36327,R,ugm-3,1.439,R,ugm-3 (Ref.eq)
04-01-2022,09:00,5.500,R,ugm-3 (FIDAS),7.82465,R,ugm-3,10.89643,R,ugm-3,22.89405,R,ugm-3,2.948,R,ugm-3 (Ref.eq)
04-01-2022,10:00,5.650,R,ugm-3 (FIDAS),6.24684,R,ugm-3,9.73535,R,ugm-3,19.31371,R,ugm-3,3.349,R,ugm-3 (Ref.eq)
04-01-2022,11:00,7.775,R,ugm-3 (FIDAS),7.76025,R,ugm-3,11.44902,R,ugm-3,23.34790,R,ugm-3,4.057,R,ugm-3 (Ref.eq)
04-01-2022,12:00,10.025,R,ugm-3 (FIDAS),14.97310,R,ugm-3,15.01343,R,ugm-3,37.97186,R,ugm-3,5.896,R,ugm-3 (Ref.eq)
04-01-2022,13:00,5.425,R,ugm-3 (FIDAS),15.58490,R,ugm-3,18.91638,R,ugm-3,42.81289,R,ugm-3,3.349,R,ugm-3 (Ref.eq)
04-01-2022,14:00,6.400,R,ugm-3 (FIDAS),11.04467,R,ugm-3,10.90102,R,ugm-3,27.83594,R,ugm-3,3.868,R,ugm-3 (Ref.eq)
04-01-2022,15:00,13.500,R,ugm-3 (FIDAS),14.52229,R,ugm-3,8.99780,R,ugm-3,31.26501,R,ugm-3,6.557,R,ugm-3 (Ref.eq)
04-01-2022,16:00,9.950,R,ugm-3 (FIDAS),9.46686,R,ugm-3,8.73140,R,ugm-3,23.24705,R,ugm-3,5.684,R,ugm-3 (Ref.eq)
04-01-2022,17:00,4.725,R,ugm-3 (FIDAS),10.91587,R,ugm-3,12.25834,R,ugm-3,28.99577,R,ugm-3,2.854,R,ugm-3 (Ref.eq)
04-01-2022,18:00,6.400,R,ugm-3 (FIDAS),6.02144,R,ugm-3,6.34933,R,ugm-3,15.58208,R,ugm-3,3.632,R,ugm-3 (Ref.eq)
04-01-2022,19:00,11.175,R,ugm-3 (FIDAS),5.31303,R,ugm-3,9.20050,R,ugm-3,17.34704,R,ugm-3,6.132,R,ugm-3 (Ref.eq)
04-01-2022,20:00,8.300,R,ugm-3 (FIDAS),5.15203,R,ugm-3,5.76616,R,ugm-3,13.66583,R,ugm-3,5.118,R,ugm-3 (Ref.eq)
04-01-2022,21:00,8.225,R,ugm-3 (FIDAS),3.12342,R,ugm-3,5.14503,R,ugm-3,9.93420,R,ugm-3,4.906,R,ugm-3 (Ref.eq)
04-01-2022,22:00,6.225,R,ugm-3 (FIDAS),4.21823,R,ugm-3,6.69370,R,ugm-3,13.16156,R,ugm-3,3.750,R,ugm-3 (Ref.eq)
04-01-2022,23:00,6.500,R,ugm-3 (FIDAS),2.60822,R,ugm-3,3.76662,R,ugm-3,7.76583,R,ugm-3,4.033,R,ugm-3 (Ref.eq)
04-01-2022,24:00,6.625,R,ugm-3 (FIDAS),2.99462,R,ugm-3,6.55278,R,ugm-3,11.14446,R,ugm-3,3.797,R,ugm-3 (Ref.eq)
05-01-2022,01:00,11.025,R,ugm-3 (FIDAS),0.64393,R,ugm-3,1.70134,R,ugm-3,2.68868,R,ugm-3,5.590,R,ugm-3 (Ref.eq)
05-01-2022,02:00,11.450,R,ugm-3 (FIDAS),0.60100,R,ugm-3,2.37211,R,ugm-3,3.29363,R,ugm-3,6.061,R,ugm-3 (Ref.eq)
05-01-2022,03:00,14.500,R,ugm-3 (FIDAS),0.35416,R,ugm-3,1.72553,R,ugm-3,2.26857,R,ugm-3,7.052,R,ugm-3 (Ref.eq)
05-01-2022,04:00,14.100,R,ugm-3 (FIDAS),0.51514,R,ugm-3,1.27705,R,ugm-3,2.06692,R,ugm-3,7.288,R,ugm-3 (Ref.eq)
05-01-2022,05:00,11.850,R,ugm-3 (FIDAS),1.09468,R,ugm-3,2.85866,R,ugm-3,4.53715,R,ugm-3,6.344,R,ugm-3 (Ref.eq)
05-01-2022,06:00,13.425,R,ugm-3 (FIDAS),0.93370,R,ugm-3,2.29889,R,ugm-3,3.73054,R,ugm-3,6.297,R,ugm-3 (Ref.eq)
05-01-2022,07:00,8.875,R,ugm-3 (FIDAS),1.38445,R,ugm-3,4.22922,R,ugm-3,6.35200,R,ugm-3,4.505,R,ugm-3 (Ref.eq)
05-01-2022,08:00,7.400,R,ugm-3 (FIDAS),11.75170,R,ugm-3,17.62277,R,ugm-3,35.64180,R,ugm-3,3.774,R,ugm-3 (Ref.eq)
05-01-2022,09:00,7.225,R,ugm-3 (FIDAS),16.99972,R,ugm-3,26.11129,R,ugm-3,52.17717,R,ugm-3,3.844,R,ugm-3 (Ref.eq)
05-01-2022,10:00,8.150,R,ugm-3 (FIDAS),17.06411,R,ugm-3,22.43326,R,ugm-3,48.59787,R,ugm-3,4.127,R,ugm-3 (Ref.eq)
05-01-2022,11:00,9.150,R,ugm-3 (FIDAS),21.63601,R,ugm-3,31.75684,R,ugm-3,64.93159,R,ugm-3,4.434,R,ugm-3 (Ref.eq)
05-01-2022,12:00,7.075,R,ugm-3 (FIDAS),35.22291,R,ugm-3,42.38143,R,ugm-3,96.38913,R,ugm-3,3.632,R,ugm-3 (Ref.eq)
05-01-2022,13:00,11.950,R,ugm-3 (FIDAS),44.10912,R,ugm-3,40.04853,R,ugm-3,107.68158,R,ugm-3,6.038,R,ugm-3 (Ref.eq)
05-01-2022,14:00,12.525,R,ugm-3 (FIDAS),37.79862,R,ugm-3,43.27167,R,ugm-3,101.22875,R,ugm-3,6.816,R,ugm-3 (Ref.eq)
05-01-2022,15:00,12.275,R,ugm-3 (FIDAS),40.95387,R,ugm-3,41.05515,R,ugm-3,103.85021,R,ugm-3,7.028,R,ugm-3 (Ref.eq)
05-01-2022,16:00,12.125,R,ugm-3 (FIDAS),43.85155,R,ugm-3,46.64423,R,ugm-3,113.88234,R,ugm-3,6.745,R,ugm-3 (Ref.eq)
05-01-2022,17:00,7.725,R,ugm-3 (FIDAS),44.23791,R,ugm-3,35.11227,R,ugm-3,102.94278,R,ugm-3,4.670,R,ugm-3 (Ref.eq)
05-01-2022,18:00,7.050,R,ugm-3 (FIDAS),34.38580,R,ugm-3,36.10306,R,ugm-3,88.82722,R,ugm-3,4.505,R,ugm-3 (Ref.eq)
05-01-2022,19:00,14.850,R,ugm-3 (FIDAS),36.41417,R,ugm-3,56.68691,R,ugm-3,112.52120,R,ugm-3,10.684,R,ugm-3 (Ref.eq)
05-01-2022,20:00,21.725,R,ugm-3 (FIDAS),26.69085,R,ugm-3,47.44811,R,ugm-3,88.37350,R,ugm-3,16.675,R,ugm-3 (Ref.eq)
05-01-2022,21:00,16.325,R,ugm-3 (FIDAS),12.74979,R,ugm-3,29.45176,R,ugm-3,49.00117,R,ugm-3,10.967,R,ugm-3 (Ref.eq)
05-01-2022,22:00,14.300,R,ugm-3 (FIDAS),11.20436,R,ugm-3,18.71408,R,ugm-3,35.89386,R,ugm-3,10.330,R,ugm-3 (Ref.eq)
05-01-2022,23:00,9.775,R,ugm-3 (FIDAS),3.92797,R,ugm-3,10.66382,R,ugm-3,16.68661,R,ugm-3,6.462,R,ugm-3 (Ref.eq)
05-01-2022,24:00,7.000,R,ugm-3 (FIDAS),3.96016,R,ugm-3,6.48060,R,ugm-3,12.55277,R,ugm-3,4.080,R,ugm-3 (Ref.eq)
06-01-2022,01:00,6.825,R,ugm-3 (FIDAS),2.74711,R,ugm-3,5.80023,R,ugm-3,10.01241,R,ugm-3,4.316,R,ugm-3 (Ref.eq)
06-01-2022,02:00,6.400,R,ugm-3 (FIDAS),,,,,,,,,,4.269,R,ugm-3 (Ref.eq)
06-01-2022,03:00,4.425,R,ugm-3 (FIDAS),5.31179,R,ugm-3,12.46816,R,ugm-3,20.61279,R,ugm-3,2.665,R,ugm-3 (Ref.eq)
06-01-2022,04:00,2.675,R,ugm-3 (FIDAS),1.25552,R,ugm-3,7.29774,R,ugm-3,9.22284,R,ugm-3,1.557,R,ugm-3 (Ref.eq)
06-01-2022,05:00,2.625,R,ugm-3 (FIDAS),0.93359,R,ugm-3,8.90011,R,ugm-3,10.33159,R,ugm-3,1.226,R,ugm-3 (Ref.eq)
06-01-2022,06:00,2.975,R,ugm-3 (FIDAS),12.65172,R,ugm-3,27.11833,R,ugm-3,46.51737,R,ugm-3,1.533,R,ugm-3 (Ref.eq)
06-01-2022,07:00,2.900,R,ugm-3 (FIDAS),15.45248,R,ugm-3,20.05200,R,ugm-3,43.74548,R,ugm-3,1.745,R,ugm-3 (Ref.eq)
06-01-2022,08:00,5.200,R,ugm-3 (FIDAS),15.35591,R,ugm-3,23.32476,R,ugm-3,46.87016,R,ugm-3,2.759,R,ugm-3 (Ref.eq)
06-01-2022,09:00,5.900,R,ugm-3 (FIDAS),18.25325,R,ugm-3,18.17666,R,ugm-3,46.16458,R,ugm-3,3.184,R,ugm-3 (Ref.eq)
06-01-2022,10:00,11.200,R,ugm-3 (FIDAS),17.54501,R,ugm-3,28.28386,R,ugm-3,55.18583,R,ugm-3,4.080,R,ugm-3 (Ref.eq)
06-01-2022,11:00,2.975,R,ugm-3 (FIDAS),11.33182,R,ugm-3,14.72832,R,ugm-3,32.10354,R,ugm-3,1.439,R,ugm-3 (Ref.eq)
06-01-2022,12:00,2.725,R,ugm-3 (FIDAS),13.84285,R,ugm-3,23.27604,R,ugm-3,44.50145,R,ugm-3,1.368,R,ugm-3 (Ref.eq)
06-01-2022,13:00,2.000,R,ugm-3 (FIDAS),16.28949,R,ugm-3,23.60681,R,ugm-3,48.58369,R,ugm-3,1.014,R,ugm-3 (Ref.eq)
06-01-2022,14:00,0.925,R,ugm-3 (FIDAS),16.93335,R,ugm-3,16.37023,R,ugm-3,42.33433,R,ugm-3,0.566,R,ugm-3 (Ref.eq)
06-01-2022,15:00,1.800,R,ugm-3 (FIDAS),20.57112,R,ugm-3,21.87995,R,ugm-3,53.42190,R,ugm-3,1.179,R,ugm-3 (Ref.eq)
06-01-2022,16:00,3.050,R,ugm-3 (FIDAS),19.02587,R,ugm-3,21.77980,R,ugm-3,50.95240,R,ugm-3,1.274,R,ugm-3 (Ref.eq)
06-01-2022,17:00,3.125,R,ugm-3 (FIDAS),15.38810,R,ugm-3,14.05256,R,ugm-3,37.64732,R,ugm-3,1.840,R,ugm-3 (Ref.eq)
06-01-2022,18:00,5.450,R,ugm-3 (FIDAS),23.66162,R,ugm-3,34.32698,R,ugm-3,70.60762,R,ugm-3,3.090,R,ugm-3 (Ref.eq)
06-01-2022,19:00,5.350,R,ugm-3 (FIDAS),11.07428,R,ugm-3,16.53435,R,ugm-3,33.51468,R,ugm-3,3.821,R,ugm-3 (Ref.eq)
06-01-2022,20:00,2.450,R,ugm-3 (FIDAS),8.91737,R,ugm-3,12.33227,R,ugm-3,26.00538,R,ugm-3,1.863,R,ugm-3 (Ref.eq)
06-01-2022,21:00,1.975,R,ugm-3 (FIDAS),4.18505,R,ugm-3,6.18252,R,ugm-3,12.59950,R,ugm-3,1.226,R,ugm-3 (Ref.eq)
06-01-2022,22:00,1.875,R,ugm-3 (FIDAS),3.95970,R,ugm-3,6.93124,R,ugm-3,13.00269,R,ugm-3,1.297,R,ugm-3 (Ref.eq)
06-01-2022,23:00,2.700,R,ugm-3 (FIDAS),2.31787,R,ugm-3,4.61046,R,ugm-3,8.16448,R,ugm-3,1.722,R,ugm-3 (Ref.eq)
06-01-2022,24:00,0.875,R,ugm-3 (FIDAS),1.60963,R,ugm-3,3.73089,R,ugm-3,6.19896,R,ugm-3,0.566,R,ugm-3 (Ref.eq)
07-01-2022,01:00,0.750,R,ugm-3 (FIDAS),0.64378,R,ugm-3,2.30460,R,ugm-3,3.29171,R,ugm-3,0.495,R,ugm-3 (Ref.eq)
07-01-2022,02:00,0.475,R,ugm-3 (FIDAS),0.72962,R,ugm-3,1.36685,R,ugm-3,2.48558,R,ugm-3,0.354,R,ugm-3 (Ref.eq)
07-01-2022,03:00,0.550,R,ugm-3 (FIDAS),0.70816,R,ugm-3,1.33258,R,ugm-3,2.41840,R,ugm-3,0.472,R,ugm-3 (Ref.eq)
07-01-2022,04:00,0.375,R,ugm-3 (FIDAS),0.64378,R,ugm-3,1.63282,R,ugm-3,2.61993,R,ugm-3,0.283,R,ugm-3 (Ref.eq)
07-01-2022,05:00,0.525,R,ugm-3 (FIDAS),1.57726,R,ugm-3,2.36799,R,ugm-3,4.78641,R,ugm-3,0.259,R,ugm-3 (Ref.eq)
07-01-2022,06:00,0.900,R,ugm-3 (FIDAS),2.80044,R,ugm-3,6.23617,R,ugm-3,10.53011,R,ugm-3,0.542,R,ugm-3 (Ref.eq)
07-01-2022,07:00,0.975,R,ugm-3 (FIDAS),6.01933,R,ugm-3,9.46270,R,ugm-3,18.69221,R,ugm-3,0.425,R,ugm-3 (Ref.eq)
07-01-2022,08:00,0.975,R,ugm-3 (FIDAS),10.04294,R,ugm-3,13.36991,R,ugm-3,28.76887,R,ugm-3,0.519,R,ugm-3 (Ref.eq)
07-01-2022,09:00,1.125,R,ugm-3 (FIDAS),20.27901,R,ugm-3,26.24215,R,ugm-3,57.33621,R,ugm-3,0.519,R,ugm-3 (Ref.eq)
07-01-2022,10:00,2.000,R,ugm-3 (FIDAS),14.51720,R,ugm-3,19.76029,R,ugm-3,42.01968,R,ugm-3,1.250,R,ugm-3 (Ref.eq)
07-01-2022,11:00,3.525,R,ugm-3 (FIDAS),20.72966,R,ugm-3,28.17110,R,ugm-3,59.95614,R,ugm-3,1.840,R,ugm-3 (Ref.eq)
07-01-2022,12:00,3.925,R,ugm-3 (FIDAS),28.10092,R,ugm-3,32.84017,R,ugm-3,75.92765,R,ugm-3,2.028,R,ugm-3 (Ref.eq)
07-01-2022,13:00,4.875,R,ugm-3 (FIDAS),28.90564,R,ugm-3,29.13750,R,ugm-3,73.45887,R,ugm-3,3.113,R,ugm-3 (Ref.eq)
07-01-2022,14:00,5.875,R,ugm-3 (FIDAS),28.71251,R,ugm-3,28.32520,R,ugm-3,72.35043,R,ugm-3,3.844,R,ugm-3 (Ref.eq)
07-01-2022,15:00,3.875,R,ugm-3 (FIDAS),30.38633,R,ugm-3,38.15300,R,ugm-3,84.74472,R,ugm-3,2.689,R,ugm-3 (Ref.eq)
07-01-2022,16:00,3.975,R,ugm-3 (FIDAS),30.77260,R,ugm-3,39.52568,R,ugm-3,86.70968,R,ugm-3,2.288,R,ugm-3 (Ref.eq)
07-01-2022,17:00,4.200,R,ugm-3 (FIDAS),31.35200,R,ugm-3,39.34264,R,ugm-3,87.41504,R,ugm-3,2.712,R,ugm-3 (Ref.eq)
07-01-2022,18:00,6.450,R,ugm-3 (FIDAS),30.96573,R,ugm-3,41.74871,R,ugm-3,89.22884,R,ugm-3,5.189,R,ugm-3 (Ref.eq)
07-01-2022,19:00,6.125,R,ugm-3 (FIDAS),17.09231,R,ugm-3,22.86550,R,ugm-3,49.07334,R,ugm-3,4.292,R,ugm-3 (Ref.eq)
07-01-2022,20:00,4.650,R,ugm-3 (FIDAS),12.16741,R,ugm-3,17.97223,R,ugm-3,36.62867,R,ugm-3,3.467,R,ugm-3 (Ref.eq)
07-01-2022,21:00,3.975,R,ugm-3 (FIDAS),7.56439,R,ugm-3,11.17468,R,ugm-3,22.77326,R,ugm-3,2.712,R,ugm-3 (Ref.eq)
07-01-2022,22:00,2.975,R,ugm-3 (FIDAS),4.82834,R,ugm-3,8.61855,R,ugm-3,16.02189,R,ugm-3,2.028,R,ugm-3 (Ref.eq)
07-01-2022,23:00,32.750,R,ugm-3 (FIDAS),2.60730,R,ugm-3,10.21029,R,ugm-3,14.20809,R,ugm-3,29.599,R,ugm-3 (Ref.eq)
07-01-2022,24:00,3.700,R,ugm-3 (FIDAS),2.54292,R,ugm-3,4.86760,R,ugm-3,8.76670,R,ugm-3,2.170,R,ugm-3 (Ref.eq)
08-01-2022,01:00,4.300,R,ugm-3 (FIDAS),0.98701,R,ugm-3,2.85188,R,ugm-3,4.36528,R,ugm-3,2.429,R,ugm-3 (Ref.eq)
08-01-2022,02:00,4.125,R,ugm-3 (FIDAS),1.54489,R,ugm-3,4.88428,R,ugm-3,7.25308,R,ugm-3,2.217,R,ugm-3 (Ref.eq)
08-01-2022,03:00,4.500,R,ugm-3 (FIDAS),1.70581,R,ugm-3,11.43730,R,ugm-3,14.05284,R,ugm-3,2.500,R,ugm-3 (Ref.eq)
08-01-2022,04:00,5.025,R,ugm-3 (FIDAS),2.09204,R,ugm-3,27.46674,R,ugm-3,30.67448,R,ugm-3,2.406,R,ugm-3 (Ref.eq)
08-01-2022,05:00,4.550,R,ugm-3 (FIDAS),2.70355,R,ugm-3,17.46274,R,ugm-3,21.60813,R,ugm-3,2.359,R,ugm-3 (Ref.eq)
08-01-2022,06:00,3.375,R,ugm-3 (FIDAS),2.80011,R,ugm-3,23.45966,R,ugm-3,27.75310,R,ugm-3,1.792,R,ugm-3 (Ref.eq)
08-01-2022,07:00,4.075,R,ugm-3 (FIDAS),4.21625,R,ugm-3,12.62487,R,ugm-3,19.08970,R,ugm-3,1.179,R,ugm-3 (Ref.eq)
08-01-2022,08:00,1.775,R,ugm-3 (FIDAS),3.60474,R,ugm-3,7.46791,R,ugm-3,12.99510,R,ugm-3,0.519,R,ugm-3 (Ref.eq)
08-01-2022,09:00,1.575,R,ugm-3 (FIDAS),6.75888,R,ugm-3,7.06406,R,ugm-3,17.42754,R,ugm-3,0.684,R,ugm-3 (Ref.eq)
08-01-2022,10:00,2.000,R,ugm-3 (FIDAS),15.67417,R,ugm-3,24.47158,R,ugm-3,48.50496,R,ugm-3,1.014,R,ugm-3 (Ref.eq)
08-01-2022,11:00,5.750,R,ugm-3 (FIDAS),19.76168,R,ugm-3,26.66607,R,ugm-3,56.96689,R,ugm-3,3.467,R,ugm-3 (Ref.eq)
08-01-2022,12:00,6.225,R,ugm-3 (FIDAS),22.59397,R,ugm-3,23.43139,R,ugm-3,58.07500,R,ugm-3,4.528,R,ugm-3 (Ref.eq)
08-01-2022,13:00,10.625,R,ugm-3 (FIDAS),19.82605,R,ugm-3,24.85484,R,ugm-3,55.25436,R,ugm-3,7.311,R,ugm-3 (Ref.eq)
08-01-2022,14:00,15.425,R,ugm-3 (FIDAS),30.99430,R,ugm-3,37.54864,R,ugm-3,85.07257,R,ugm-3,10.212,R,ugm-3 (Ref.eq)
08-01-2022,15:00,12.550,R,ugm-3 (FIDAS),19.40764,R,ugm-3,23.63275,R,ugm-3,53.39072,R,ugm-3,7.783,R,ugm-3 (Ref.eq)
08-01-2022,16:00,10.425,R,ugm-3 (FIDAS),19.37546,R,ugm-3,24.33689,R,ugm-3,54.04551,R,ugm-3,6.792,R,ugm-3 (Ref.eq)
08-01-2022,17:00,7.250,R,ugm-3 (FIDAS),14.25802,R,ugm-3,13.19455,R,ugm-3,35.05655,R,ugm-3,5.354,R,ugm-3 (Ref.eq)
08-01-2022,18:00,6.150,R,ugm-3 (FIDAS),16.31787,R,ugm-3,16.43298,R,ugm-3,41.45336,R,ugm-3,4.387,R,ugm-3 (Ref.eq)
08-01-2022,19:00,6.725,R,ugm-3 (FIDAS),20.75942,R,ugm-3,29.01460,R,ugm-3,60.84527,R,ugm-3,4.646,R,ugm-3 (Ref.eq)
08-01-2022,20:00,5.525,R,ugm-3 (FIDAS),8.65781,R,ugm-3,14.93130,R,ugm-3,28.20642,R,ugm-3,3.821,R,ugm-3 (Ref.eq)
08-01-2022,21:00,5.900,R,ugm-3 (FIDAS),7.08073,R,ugm-3,14.52880,R,ugm-3,25.38578,R,ugm-3,3.892,R,ugm-3 (Ref.eq)
08-01-2022,22:00,5.400,R,ugm-3 (FIDAS),4.37718,R,ugm-3,7.13978,R,ugm-3,13.85137,R,ugm-3,3.915,R,ugm-3 (Ref.eq)
08-01-2022,23:00,5.750,R,ugm-3 (FIDAS),2.22078,R,ugm-3,4.35162,R,ugm-3,7.75677,R,ugm-3,4.127,R,ugm-3 (Ref.eq)
08-01-2022,24:00,3.725,R,ugm-3 (FIDAS),1.83455,R,ugm-3,3.88608,R,ugm-3,6.69903,R,ugm-3,2.406,R,ugm-3 (Ref.eq)
09-01-2022,01:00,4.650,R,ugm-3 (FIDAS),1.88797,R,ugm-3,2.74478,R,ugm-3,5.63964,R,ugm-3,2.948,R,ugm-3 (Ref.eq)
09-01-2022,02:00,5.050,R,ugm-3 (FIDAS),1.63052,R,ugm-3,3.34095,R,ugm-3,5.84105,R,ugm-3,3.373,R,ugm-3 (Ref.eq)
09-01-2022,03:00,4.875,R,ugm-3 (FIDAS),0.77235,R,ugm-3,1.98804,R,ugm-3,3.17230,R,ugm-3,3.137,R,ugm-3 (Ref.eq)
09-01-2022,04:00,3.875,R,ugm-3 (FIDAS),0.51490,R,ugm-3,1.77854,R,ugm-3,2.56805,R,ugm-3,2.359,R,ugm-3 (Ref.eq)
09-01-2022,05:00,5.800,R,ugm-3 (FIDAS),1.02981,R,ugm-3,2.04647,R,ugm-3,3.62548,R,ugm-3,3.373,R,ugm-3 (Ref.eq)
09-01-2022,06:00,5.975,R,ugm-3 (FIDAS),1.25507,R,ugm-3,2.95991,R,ugm-3,4.88433,R,ugm-3,3.467,R,ugm-3 (Ref.eq)
09-01-2022,07:00,6.875,R,ugm-3 (FIDAS),1.28726,R,ugm-3,3.96800,R,ugm-3,5.94176,R,ugm-3,3.939,R,ugm-3 (Ref.eq)
09-01-2022,08:00,6.975,R,ugm-3 (FIDAS),2.05961,R,ugm-3,4.19365,R,ugm-3,7.35167,R,ugm-3,4.127,R,ugm-3 (Ref.eq)
09-01-2022,09:00,3.850,R,ugm-3 (FIDAS),6.75809,R,ugm-3,14.26079,R,ugm-3,24.62306,R,ugm-3,2.406,R,ugm-3 (Ref.eq)
09-01-2022,10:00,6.475,R,ugm-3 (FIDAS),32.34229,R,ugm-3,59.82819,R,ugm-3,109.41901,R,ugm-3,3.726,R,ugm-3 (Ref.eq)
09-01-2022,11:00,10.600,R,ugm-3 (FIDAS),83.60723,R,ugm-3,72.81678,R,ugm-3,201.01274,R,ugm-3,6.981,R,ugm-3 (Ref.eq)
09-01-2022,12:00,13.325,R,ugm-3 (FIDAS),44.76430,R,ugm-3,47.27702,R,ugm-3,115.91466,R,ugm-3,8.774,R,ugm-3 (Ref.eq)
09-01-2022,13:00,11.000,R,ugm-3 (FIDAS),105.32967,R,ugm-3,84.07270,R,ugm-3,245.57594,R,ugm-3,6.934,R,ugm-3 (Ref.eq)
09-01-2022,14:00,12.100,R,ugm-3 (FIDAS),57.99085,R,ugm-3,67.17901,R,ugm-3,156.09707,R,ugm-3,8.113,R,ugm-3 (Ref.eq)
09-01-2022,15:00,8.750,R,ugm-3 (FIDAS),3.99049,R,ugm-3,20.92137,R,ugm-3,27.04004,R,ugm-3,6.533,R,ugm-3 (Ref.eq)
09-01-2022,16:00,12.600,R,ugm-3 (FIDAS),9.36478,R,ugm-3,33.17494,R,ugm-3,47.53408,R,ugm-3,9.599,R,ugm-3 (Ref.eq)
09-01-2022,17:00,25.675,R,ugm-3 (FIDAS),96.02925,R,ugm-3,65.85489,R,ugm-3,213.09768,R,ugm-3,21.510,R,ugm-3 (Ref.eq)
09-01-2022,18:00,35.050,R,ugm-3 (FIDAS),90.71932,R,ugm-3,62.21385,R,ugm-3,201.31487,R,ugm-3,30.354,R,ugm-3 (Ref.eq)
09-01-2022,19:00,34.025,R,ugm-3 (FIDAS),97.86359,R,ugm-3,67.17129,R,ugm-3,217.22670,R,ugm-3,29.505,R,ugm-3 (Ref.eq)